Time,TemperatureF,DewpointF,PressureIn,WindDirection,WindDirectionDegrees,WindSpeedMPH,WindSpeedGustMPH,Humidity,HourlyPrecipIn,Conditions,Clouds,dailyrainin,SoftwareType,DateUTC
2017-07-22 00:03:00,77.6,76.8,29.98,SE,133,0.7,1.8,97,0.00,,,-99.99,Onset +HOBO +Station,2017-07-22 04:03:00,
2017-07-22 00:13:00,78.0,76.7,29.97,SE,133,1.1,3.4,95,0.00,,,-99.99,Onset +HOBO +Station,2017-07-22 04:13:00,
2017-07-22 00:22:00,77.5,76.8,29.97,SE,133,1.8,3.4,97,0.00,,,-99.99,Onset +HOBO +Station,2017-07-22 04:22:00,
2017-07-22 00:32:00,77.7,76.7,29.96,SSE,150,3.4,5.1,96,0.00,,,-99.99,Onset +HOBO +Station,2017-07-22 04:32:00,
2017-07-22 00:42:00,78.0,76.6,29.96,SSE,161,3.4,5.1,95,0.00,,,-99.99,Onset +HOBO +Station,2017-07-22 04:42:00,
2017-07-22 00:52:00,77.8,76.6,29.96,SSE,160,3.4,5.1,95,0.00,,,-99.99,Onset +HOBO +Station,2017-07-22 04:52:00,
2017-07-22 01:03:00,77.6,76.5,29.95,SSE,150,4.0,5.6,96,0.00,,,-99.99,Onset +HOBO +Station,2017-07-22 05:03:00,
2017-07-22 01:11:00,76.9,76.1,29.94,SE,129,2.9,4.0,97,0.00,,,-99.99,Onset +HOBO +Station,2017-07-22 05:11:00,
2017-07-22 01:20:00,76.5,76.2,29.93,SE,131,4.0,6.3,99,0.00,,,-99.99,Onset +HOBO +Station,2017-07-22 05:20:00,
2017-07-22 01:21:00,76.6,76.3,29.94,SE,129,3.4,5.1,98,0.00,,,-99.99,Onset +HOBO +Station,2017-07-22 05:21:00,
2017-07-22 01:30:00,76.3,76.3,29.93,SE,145,5.1,7.8,99,0.00,,,-99.99,Onset +HOBO +Station,2017-07-22 05:30:00,
2017-07-22 01:31:00,76.4,76.3,29.93,SE,135,4.0,6.3,99,0.00,,,-99.99,Onset +HOBO +Station,2017-07-22 05:31:00,
2017-07-22 01:40:00,76.1,76.1,29.93,SE,140,6.3,7.8,99,0.00,,,-99.99,Onset +HOBO +Station,2017-07-22 05:40:00,
2017-07-22 01:50:00,75.7,75.7,29.93,SE,143,7.8,10.7,99,0.00,,,-99.99,Onset +HOBO +Station,2017-07-22 05:50:00,
2017-07-22 02:00:00,75.6,75.4,29.93,SSE,150,8.5,11.2,99,0.00,,,-99.99,Onset +HOBO +Station,2017-07-22 06:00:00,
2017-07-22 02:10:00,75.5,75.1,29.93,SSE,153,9.6,12.3,98,0.00,,,-99.99,Onset +HOBO +Station,2017-07-22 06:10:00,
2017-07-22 02:22:00,75.4,75.0,29.92,SSE,156,7.8,10.1,98,0.00,,,-99.99,Onset +HOBO +Station,2017-07-22 06:22:00,
2017-07-22 02:29:00,75.4,75.0,29.92,SSE,156,7.8,10.1,98,0.00,,,-99.99,Onset +HOBO +Station,2017-07-22 06:29:00,
2017-07-22 02:39:00,75.5,75.1,29.91,SSE,160,8.9,11.9,98,0.00,,,-99.99,Onset +HOBO +Station,2017-07-22 06:39:00,
2017-07-22 02:49:00,75.3,74.9,29.91,SSE,164,7.8,10.1,98,0.00,,,-99.99,Onset +HOBO +Station,2017-07-22 06:49:00,
2017-07-22 02:58:00,75.2,74.9,29.91,South,170,7.4,10.1,98,0.00,,,-99.99,Onset +HOBO +Station,2017-07-22 06:58:00,
2017-07-22 03:08:00,75.3,75.1,29.90,South,170,9.6,13.4,99,0.00,,,-99.99,Onset +HOBO +Station,2017-07-22 07:08:00,
2017-07-22 03:18:00,75.2,75.0,29.90,SSE,167,9.6,12.3,99,0.00,,,-99.99,Onset +HOBO +Station,2017-07-22 07:18:00,
2017-07-22 03:27:00,75.1,75.1,29.90,South,170,8.9,11.9,99,0.00,,,-99.99,Onset +HOBO +Station,2017-07-22 07:27:00,
2017-07-22 03:37:00,75.2,75.2,29.91,South,171,8.9,11.2,99,0.00,,,-99.99,Onset +HOBO +Station,2017-07-22 07:37:00,
2017-07-22 03:47:00,75.5,75.5,29.91,South,173,6.7,8.9,99,0.00,,,-99.99,Onset +HOBO +Station,2017-07-22 07:47:00,
2017-07-22 03:57:00,75.8,75.7,29.89,South,173,8.5,11.2,99,0.00,,,-99.99,Onset +HOBO +Station,2017-07-22 07:57:00,
2017-07-22 04:06:00,76.0,75.8,29.89,South,174,8.9,12.3,99,0.00,,,-99.99,Onset +HOBO +Station,2017-07-22 08:06:00,
2017-07-22 04:16:00,76.0,75.9,29.89,South,184,8.5,11.9,99,0.00,,,-99.99,Onset +HOBO +Station,2017-07-22 08:16:00,
2017-07-22 04:25:00,76.6,76.3,29.89,SSW,194,8.5,10.7,98,0.00,,,-99.99,Onset +HOBO +Station,2017-07-22 08:25:00,
2017-07-22 04:26:00,76.4,76.1,29.89,South,190,8.5,10.7,98,0.00,,,-99.99,Onset +HOBO +Station,2017-07-22 08:26:00,
2017-07-22 04:35:00,76.9,76.5,29.89,SSW,197,7.8,11.2,98,0.00,,,-99.99,Onset +HOBO +Station,2017-07-22 08:35:00,
2017-07-22 04:36:00,76.7,76.4,29.89,SSW,198,7.8,10.1,98,0.00,,,-99.99,Onset +HOBO +Station,2017-07-22 08:36:00,
2017-07-22 04:45:00,77.0,76.6,29.90,SSW,199,8.5,11.2,98,0.00,,,-99.99,Onset +HOBO +Station,2017-07-22 08:45:00,
2017-07-22 04:55:00,77.2,76.7,29.90,SSW,211,8.5,11.2,98,0.00,,,-99.99,Onset +HOBO +Station,2017-07-22 08:55:00,
2017-07-22 05:05:00,77.2,76.7,29.90,SW,218,8.5,11.9,98,0.00,,,-99.99,Onset +HOBO +Station,2017-07-22 09:05:00,
2017-07-22 05:14:00,77.3,76.8,29.90,SW,218,8.9,12.3,98,0.00,,,-99.99,Onset +HOBO +Station,2017-07-22 09:14:00,
2017-07-22 05:24:00,77.3,76.8,29.89,SW,226,8.9,13.0,98,0.00,,,-99.99,Onset +HOBO +Station,2017-07-22 09:24:00,
2017-07-22 05:25:00,77.6,77.0,29.89,SW,220,10.7,15.2,97,0.00,,,-99.99,Onset +HOBO +Station,2017-07-22 09:25:00,
2017-07-22 05:35:00,77.4,76.9,29.89,SW,227,9.6,13.4,98,0.00,,,-99.99,Onset +HOBO +Station,2017-07-22 09:35:00,
2017-07-22 05:44:00,77.5,76.9,29.88,SW,220,10.7,15.2,98,0.00,,,-99.99,Onset +HOBO +Station,2017-07-22 09:44:00,
2017-07-22 05:54:00,77.6,77.1,29.88,SW,222,10.1,15.9,98,0.00,,,-99.99,Onset +HOBO +Station,2017-07-22 09:54:00,
2017-07-22 06:04:00,77.9,77.4,29.89,SW,236,11.2,18.6,98,0.00,,,-99.99,Onset +HOBO +Station,2017-07-22 10:04:00,
2017-07-22 06:13:00,77.6,77.1,29.90,WSW,240,8.9,14.5,98,0.00,,,-99.99,Onset +HOBO +Station,2017-07-22 10:13:00,
2017-07-22 06:23:00,77.1,76.8,29.90,WSW,239,9.6,12.3,98,0.00,,,-99.99,Onset +HOBO +Station,2017-07-22 10:23:00,
2017-07-22 06:32:00,76.9,76.7,29.90,WSW,247,9.6,14.5,99,0.00,,,-99.99,Onset +HOBO +Station,2017-07-22 10:32:00,
2017-07-22 06:42:00,75.4,75.3,29.92,NW,306,14.5,24.2,99,0.00,,,-99.99,Onset +HOBO +Station,2017-07-22 10:42:00,
2017-07-22 06:53:00,74.9,74.9,29.92,NW,314,7.8,13.0,99,0.00,,,-99.99,Onset +HOBO +Station,2017-07-22 10:53:00,
2017-07-22 07:01:00,74.9,74.3,29.92,NW,320,7.4,11.9,98,0.00,,,-99.99,Onset +HOBO +Station,2017-07-22 11:01:00,
2017-07-22 07:11:00,74.8,73.8,29.92,NW,320,8.5,11.2,96,0.00,,,-99.99,Onset +HOBO +Station,2017-07-22 11:11:00,
2017-07-22 07:20:00,74.6,73.6,29.91,NW,316,3.4,5.6,96,0.00,,,-99.99,Onset +HOBO +Station,2017-07-22 11:20:00,
2017-07-22 07:21:00,74.6,73.7,29.91,NW,319,4.5,7.4,96,0.00,,,-99.99,Onset +HOBO +Station,2017-07-22 11:21:00,
2017-07-22 07:30:00,74.6,73.6,29.92,NW,305,2.9,4.0,96,0.00,,,-99.99,Onset +HOBO +Station,2017-07-22 11:30:00,
2017-07-22 07:33:00,74.6,73.6,29.92,NW,313,2.9,5.6,96,0.00,,,-99.99,Onset +HOBO +Station,2017-07-22 11:33:00,
2017-07-22 07:40:00,74.6,73.7,29.92,WNW,298,3.4,6.7,96,0.00,,,-99.99,Onset +HOBO +Station,2017-07-22 11:40:00,
2017-07-22 07:50:00,74.8,73.8,29.91,West,274,1.1,2.2,96,0.00,,,-99.99,Onset +HOBO +Station,2017-07-22 11:50:00,
2017-07-22 08:00:00,74.9,74.0,29.91,WSW,241,2.9,4.5,96,0.00,,,-99.99,Onset +HOBO +Station,2017-07-22 12:00:00,
2017-07-22 08:01:00,74.9,73.9,29.91,WSW,246,2.2,3.4,96,0.00,,,-99.99,Onset +HOBO +Station,2017-07-22 12:01:00,
2017-07-22 08:11:00,75.2,74.2,29.91,SW,229,2.9,5.1,96,0.00,,,-99.99,Onset +HOBO +Station,2017-07-22 12:11:00,
2017-07-22 08:19:00,75.2,74.3,29.91,SSW,211,4.5,6.7,96,0.00,,,-99.99,Onset +HOBO +Station,2017-07-22 12:19:00,
2017-07-22 08:20:00,75.6,74.6,29.90,SSW,195,4.0,7.4,96,0.00,,,-99.99,Onset +HOBO +Station,2017-07-22 12:20:00,
2017-07-22 08:30:00,75.6,74.5,29.91,SSW,195,5.1,7.4,96,0.00,,,-99.99,Onset +HOBO +Station,2017-07-22 12:30:00,
2017-07-22 08:40:00,76.2,75.0,29.90,South,183,3.4,5.6,96,0.00,,,-99.99,Onset +HOBO +Station,2017-07-22 12:40:00,
2017-07-22 08:48:00,76.2,74.9,29.90,South,191,5.1,6.7,95,0.00,,,-99.99,Onset +HOBO +Station,2017-07-22 12:48:00,
2017-07-22 08:58:00,76.7,75.4,29.90,South,188,5.6,7.4,95,0.00,,,-99.99,Onset +HOBO +Station,2017-07-22 12:58:00,
2017-07-22 09:08:00,77.1,75.6,29.91,SSW,205,6.3,8.5,94,0.00,,,-99.99,Onset +HOBO +Station,2017-07-22 13:08:00,
2017-07-22 09:19:00,77.5,75.8,29.91,South,191,5.1,7.8,94,0.00,,,-99.99,Onset +HOBO +Station,2017-07-22 13:19:00,
2017-07-22 09:27:00,78.3,76.4,29.90,SSW,198,6.3,8.5,93,0.00,,,-99.99,Onset +HOBO +Station,2017-07-22 13:27:00,
2017-07-22 09:38:00,78.4,76.1,29.91,SW,218,6.7,8.9,92,0.00,,,-99.99,Onset +HOBO +Station,2017-07-22 13:38:00,
2017-07-22 09:47:00,79.6,77.3,29.91,SSW,209,6.3,9.6,92,0.00,,,-99.99,Onset +HOBO +Station,2017-07-22 13:47:00,
2017-07-22 09:57:00,79.6,76.7,29.91,SSW,204,8.5,11.2,90,0.00,,,-99.99,Onset +HOBO +Station,2017-07-22 13:57:00,
2017-07-22 10:07:00,79.8,77.0,29.91,SSW,205,8.9,11.2,90,0.00,,,-99.99,Onset +HOBO +Station,2017-07-22 14:07:00,
2017-07-22 10:16:00,81.0,77.8,29.91,SSW,202,8.5,11.2,90,0.00,,,-99.99,Onset +HOBO +Station,2017-07-22 14:16:00,
2017-07-22 10:27:00,81.2,78.5,29.91,SW,216,8.5,12.3,91,0.00,,,-99.99,Onset +HOBO +Station,2017-07-22 14:27:00,
2017-07-22 10:30:00,81.4,79.4,29.91,SW,222,10.1,13.4,93,0.00,,,-99.99,Onset +HOBO +Station,2017-07-22 14:30:00,
2017-07-22 10:35:00,81.8,79.9,29.91,SW,222,10.1,14.1,93,0.00,,,-99.99,Onset +HOBO +Station,2017-07-22 14:35:00,
2017-07-22 10:45:00,82.4,80.6,29.90,SW,223,10.7,15.9,93,0.00,,,-99.99,Onset +HOBO +Station,2017-07-22 14:45:00,
2017-07-22 10:46:00,82.3,80.3,29.91,SSW,213,10.1,14.1,93,0.00,,,-99.99,Onset +HOBO +Station,2017-07-22 14:46:00,
2017-07-22 10:55:00,83.0,81.1,29.90,SW,226,12.3,18.6,93,0.00,,,-99.99,Onset +HOBO +Station,2017-07-22 14:55:00,
2017-07-22 11:04:00,83.8,81.7,29.91,WSW,240,11.2,16.3,93,0.00,,,-99.99,Onset +HOBO +Station,2017-07-22 15:04:00,
2017-07-22 11:05:00,83.3,81.4,29.91,WSW,244,10.1,15.2,93,0.00,,,-99.99,Onset +HOBO +Station,2017-07-22 15:05:00,
2017-07-22 11:15:00,83.5,81.6,29.90,WSW,240,8.9,15.9,93,0.00,,,-99.99,Onset +HOBO +Station,2017-07-22 15:15:00,
2017-07-22 11:23:00,83.2,81.4,29.90,WSW,243,11.9,15.9,94,0.00,,,-99.99,Onset +HOBO +Station,2017-07-22 15:23:00,
2017-07-22 11:33:00,83.7,81.9,29.90,SW,234,10.7,17.4,94,0.00,,,-99.99,Onset +HOBO +Station,2017-07-22 15:33:00,
2017-07-22 11:43:00,84.0,82.3,29.90,WSW,243,8.9,12.3,94,0.00,,,-99.99,Onset +HOBO +Station,2017-07-22 15:43:00,
2017-07-22 11:53:00,85.5,83.6,29.89,SW,234,8.5,15.2,93,0.00,,,-99.99,Onset +HOBO +Station,2017-07-22 15:53:00,
2017-07-22 12:02:00,85.2,82.7,29.90,WSW,254,10.1,15.2,92,0.00,,,-99.99,Onset +HOBO +Station,2017-07-22 16:02:00,
2017-07-22 12:12:00,85.9,83.0,29.89,WSW,244,11.9,21.5,91,0.00,,,-99.99,Onset +HOBO +Station,2017-07-22 16:12:00,
2017-07-22 12:22:00,86.3,83.0,29.88,WSW,247,13.4,20.8,89,0.00,,,-99.99,Onset +HOBO +Station,2017-07-22 16:22:00,
2017-07-22 12:31:00,86.6,82.9,29.89,WSW,253,11.9,17.4,88,0.00,,,-99.99,Onset +HOBO +Station,2017-07-22 16:31:00,
2017-07-22 12:40:00,86.3,82.6,29.89,WSW,251,10.7,17.4,88,0.00,,,-99.99,Onset +HOBO +Station,2017-07-22 16:40:00,
2017-07-22 12:42:00,86.7,83.0,29.89,WSW,251,11.2,15.9,88,0.00,,,-99.99,Onset +HOBO +Station,2017-07-22 16:42:00,
2017-07-22 12:50:00,86.4,82.9,29.88,WSW,247,10.7,17.4,89,0.00,,,-99.99,Onset +HOBO +Station,2017-07-22 16:50:00,
2017-07-22 12:51:00,86.1,82.3,29.89,WSW,254,10.1,18.1,88,0.00,,,-99.99,Onset +HOBO +Station,2017-07-22 16:51:00,
2017-07-22 13:00:00,86.3,82.7,29.88,SW,234,12.3,19.2,88,0.00,,,-99.99,Onset +HOBO +Station,2017-07-22 17:00:00,
2017-07-22 13:10:00,86.5,82.7,29.87,WSW,237,13.0,20.4,88,0.00,,,-99.99,Onset +HOBO +Station,2017-07-22 17:10:00,
2017-07-22 13:11:00,86.5,82.7,29.87,WSW,237,12.3,21.5,88,0.00,,,-99.99,Onset +HOBO +Station,2017-07-22 17:11:00,
2017-07-22 13:20:00,85.9,82.1,29.86,SW,229,16.3,22.6,88,0.00,,,-99.99,Onset +HOBO +Station,2017-07-22 17:20:00,
2017-07-22 13:29:00,86.3,82.6,29.86,SW,233,14.1,20.4,88,0.00,,,-99.99,Onset +HOBO +Station,2017-07-22 17:29:00,
2017-07-22 13:39:00,86.8,82.8,29.84,SW,225,14.5,23.7,88,0.00,,,-99.99,Onset +HOBO +Station,2017-07-22 17:39:00,
2017-07-22 13:49:00,87.8,83.6,29.82,SW,219,16.3,24.8,87,0.00,,,-99.99,Onset +HOBO +Station,2017-07-22 17:49:00,
2017-07-22 13:58:00,87.3,82.8,29.79,SW,223,20.8,30.4,86,0.00,,,-99.99,Onset +HOBO +Station,2017-07-22 17:58:00,
2017-07-22 14:08:00,88.4,83.3,29.78,SW,215,20.8,29.8,84,0.00,,,-99.99,Onset +HOBO +Station,2017-07-22 18:08:00,
2017-07-22 14:19:00,87.9,82.4,29.78,SW,215,20.4,27.1,83,0.00,,,-99.99,Onset +HOBO +Station,2017-07-22 18:19:00,
2017-07-22 14:27:00,87.3,82.2,29.79,SW,225,14.5,22.6,84,0.00,,,-99.99,Onset +HOBO +Station,2017-07-22 18:27:00,
2017-07-22 14:37:00,88.0,82.7,29.80,SW,215,13.4,21.9,84,0.00,,,-99.99,Onset +HOBO +Station,2017-07-22 18:37:00,
2017-07-22 14:47:00,87.1,81.5,29.80,SW,216,15.2,24.8,83,0.00,,,-99.99,Onset +HOBO +Station,2017-07-22 18:47:00,
2017-07-22 14:57:00,87.5,82.4,29.81,SW,230,8.9,11.9,84,0.00,,,-99.99,Onset +HOBO +Station,2017-07-22 18:57:00,
2017-07-22 15:07:00,88.0,82.5,29.81,SW,222,11.9,16.3,83,0.00,,,-99.99,Onset +HOBO +Station,2017-07-22 19:07:00,
2017-07-22 15:16:00,87.3,82.1,29.82,SW,226,10.7,19.2,84,0.00,,,-99.99,Onset +HOBO +Station,2017-07-22 19:16:00,
2017-07-22 15:25:00,88.7,83.3,29.82,WSW,237,7.8,12.3,84,0.00,,,-99.99,Onset +HOBO +Station,2017-07-22 19:25:00,
2017-07-22 15:26:00,87.7,82.3,29.82,SW,234,8.5,15.9,83,0.00,,,-99.99,Onset +HOBO +Station,2017-07-22 19:26:00,
2017-07-22 15:35:00,88.4,83.0,29.83,WSW,250,7.4,11.2,83,0.00,,,-99.99,Onset +HOBO +Station,2017-07-22 19:35:00,
2017-07-22 15:45:00,88.6,82.8,29.82,WSW,241,9.6,13.0,83,0.00,,,-99.99,Onset +HOBO +Station,2017-07-22 19:45:00,
2017-07-22 15:56:00,88.4,82.8,29.82,WSW,251,9.6,13.0,83,0.00,,,-99.99,Onset +HOBO +Station,2017-07-22 19:56:00,
2017-07-22 16:04:00,87.9,82.5,29.83,WSW,254,8.9,14.1,84,0.00,,,-99.99,Onset +HOBO +Station,2017-07-22 20:04:00,
2017-07-22 16:14:00,88.4,83.2,29.82,WSW,257,7.8,13.0,84,0.00,,,-99.99,Onset +HOBO +Station,2017-07-22 20:14:00,
2017-07-22 16:15:00,89.5,83.5,29.82,WSW,257,10.1,14.5,82,0.00,,,-99.99,Onset +HOBO +Station,2017-07-22 20:15:00,
2017-07-22 16:25:00,90.1,84.0,29.82,WSW,250,8.9,13.4,82,0.00,,,-99.99,Onset +HOBO +Station,2017-07-22 20:25:00,
2017-07-22 16:33:00,90.1,83.8,29.82,West,261,7.8,14.1,81,0.00,,,-99.99,Onset +HOBO +Station,2017-07-22 20:33:00,
2017-07-22 16:43:00,89.5,83.1,29.82,West,264,9.6,17.0,81,0.00,,,-99.99,Onset +HOBO +Station,2017-07-22 20:43:00,
2017-07-22 16:53:00,89.5,83.1,29.82,West,263,8.5,14.1,81,0.00,,,-99.99,Onset +HOBO +Station,2017-07-22 20:53:00,
2017-07-22 17:02:00,89.0,82.6,29.81,WSW,256,9.6,15.2,81,0.00,,,-99.99,Onset +HOBO +Station,2017-07-22 21:02:00,
2017-07-22 17:12:00,89.8,83.4,29.81,West,265,7.8,13.0,81,0.00,,,-99.99,Onset +HOBO +Station,2017-07-22 21:12:00,
2017-07-22 17:22:00,90.3,83.4,29.82,WSW,258,8.9,15.2,80,0.00,,,-99.99,Onset +HOBO +Station,2017-07-22 21:22:00,
2017-07-22 17:31:00,90.2,83.4,29.81,West,265,8.9,14.1,80,0.00,,,-99.99,Onset +HOBO +Station,2017-07-22 21:31:00,
2017-07-22 17:41:00,89.7,83.3,29.82,West,264,8.5,11.9,81,0.00,,,-99.99,Onset +HOBO +Station,2017-07-22 21:41:00,
2017-07-22 17:50:00,87.9,82.0,29.81,West,265,7.8,13.4,82,0.00,,,-99.99,Onset +HOBO +Station,2017-07-22 21:50:00,
2017-07-22 17:51:00,89.1,83.0,29.81,West,263,8.5,13.4,82,0.00,,,-99.99,Onset +HOBO +Station,2017-07-22 21:51:00,
2017-07-22 18:00:00,87.6,82.3,29.81,West,260,6.7,11.2,84,0.00,,,-99.99,Onset +HOBO +Station,2017-07-22 22:00:00,
2017-07-22 18:11:00,87.3,82.2,29.82,West,260,6.7,10.1,84,0.00,,,-99.99,Onset +HOBO +Station,2017-07-22 22:11:00,
2017-07-22 18:29:00,87.6,82.8,29.82,West,270,4.5,7.8,85,0.00,,,-99.99,Onset +HOBO +Station,2017-07-22 22:29:00,